Showing default

LEMUR 2 NIMBUS2000, 58899

Orbit data source: Space-Track

LEMUR 2 NIMBUS2000, 58899 is an American payload satellite in SSO that was launched on Wed, 31 Jan 2024 UTC via an ELECTRON launch vehicle from the Rocket Lab Launch Complex (RLLC). Payload-class satellites include a variety of spacecraft equipped with specific instruments for various scientific and technological missions. These include communications satellites like Starlink; space stations such as the ISS; scientific satellites like the Hubble; Earth observation satellites from companies like Planet Labs, Umbra, and HawkEye 360; GPS; miniature CubeSats for education and research; and military/defense satellites.

Loading next visibility...
Identifier
58899, 2024-022A
Orbit
SSO
Last TLE update
18 hours ago
Origin
Manufacturer
Spire/Glasgow
Mission
Operational Commercial Early Warn
Bus & Motor
CUBESAT 3U, Unknown motor
Mass
~25 kg wet, ~25 kg dry
Launch date (UTC)
2024-01-31 (1 year ago)
Launch vehicle
ELECTRON
Launch site
Rocket Lab Launch Complex (RLLC)
Object type
Payload
Rocket body
Debris
Shape & HBR
Box + 2 Pan, 1 m
Radar Cross Section
0.146 m², Medium (>0.1 m² and < 1m²)

Expand to show TLE details & history

TLE from 18 hours ago
0 LEMUR 2 NIMBUS2000
1 58899U 24022A   25128.53693793  .00012207  00000-0  46657-3 0  9995
2 58899  97.4521 331.6982 0013749 117.8053 242.4581 15.26667078 70281
Epoch: 2025-05-08T12:53Z
Definitive object data (Epoch: 2025-05-08T12:53:11.437Z)
Latitude
-0°
Longitude
-88.20547°
Altitude
493.257 km
Speed
7.616 km/s
True Right ascension
22h 06m 47s
True Declination
0° 00' 00"
Sunlit
Object was in daylight at TLE epoch
Visualization TLE readout
Latitude
-13.73238°
Longitude
90.72743°
Altitude
489.716 km
Speed
7.62 km/s
Apparent Right ascension
07h 20m 18s
Apparent Declination
-37° 46' 16"
Sunlit
Object is in daylight
Visualization observer readout
Local Sidereal Time
15:10:59
Azimuth
251.501° W
Elevation
-42.422°
Doppler factor
1
Orbital elements
Apogee altitude
492.176 km
Perigee altitude
473.31 km
Semi-major axis
6,860.88 km
Eccentricity
0.0013749
Inclination
97.4521°
RAAN
331.6982°
Arg. of periapsis
117.8053°
True anomaly
242.31851°
Mean anomaly
242.4581°
Eccentric anomaly
242.3883°
Mean motion
3.81921 °/min
BSTAR
0.00046657
Orbital period
94.26 mins
Loading maneuver chart data...
Loading SW <> Apogee altitude chart data...
Loading historical data...
Loading historical data...
Loading historical data...
Loading historical data...
Loading historical data...
Loading historical data...
Loading historical data...

LEMUR 2 NIMBUS2000 Visibility forecast

Observer location: undefined°, undefined°

Span
Click to sort rows by Start time (UTC) header in descending order
Start Az.
Max El. time (UTC)
Max El. Az.
Max El.
End time (UTC)
End Az.
4 mins2025-05-09 12:38:03.879Z108.411° ESE2025-05-09 12:40:03.879Z73.346° E16.104°2025-05-09 12:42:03.879Z34.754° NE
4 mins2025-05-09 14:12:03.879Z224.73° SW2025-05-09 14:13:03.879Z248.951° W23.47°2025-05-09 14:16:03.879Z317.515° NNW
|